EHI
0 0 0 0 0 0 0 0 0 1 1 1 1 1 3 7 11 12 12 16 19 18 16 16 18 21 23 22 19 17 15 11 10 11 10 8 6 5 2 1 1 0 0 0
0 0 0 0 0 0 0 0 1 1 1 2 3 3 5 9 13 13 12 13 16 17 16 16 18 20 23 24 22 20 16 13 11 11 10 8 7 6 3 1 0 0 0 0
0 0 0 0 0 1 1 1 2 2 2 3 4 4 5 8 12 12 11 10 11 12 12 12 13 16 20 23 24 22 19 16 14 12 10 10 9 7 4 1 0 1 0 0
0 0 0 0 0 1 2 2 2 2 4 6 8 8 7 7 9 11 11 11 9 8 7 7 7 9 14 20 23 22 21 20 16 13 11 10 9 8 5 2 1 1 1 0
0 0 0 0 0 1 1 2 3 5 8 12 14 14 11 9 10 12 14 13 9 6 4 4 3 4 9 15 20 22 22 20 18 14 10 8 7 6 4 4 3 2 1 1
0 0 0 0 0 0 1 2 3 7 13 16 15 13 11 9 11 14 14 12 7 4 2 2 2 4 8 11 15 17 16 16 15 13 10 6 4 2 2 4 3 2 1 1
0 0 0 0 0 0 0 1 4 8 12 13 11 9 8 8 10 11 10 7 4 3 2 1 2 4 6 8 8 7 7 7 8 9 7 4 2 0 0 1 1 1 1 1
0 0 0 0 0 0 0 2 5 7 8 10 9 8 8 7 6 6 5 3 2 2 2 1 2 3 4 4 3 2 1 2 4 4 3 2 2 0 0 0 0 0 0 0
0 0 0 0 1 2 3 5 6 6 6 9 9 8 5 4 3 3 2 1 1 1 1 1 2 3 3 3 2 1 1 2 2 1 0 1 1 0 0 0 0 0 0 0
0 0 0 1 3 4 5 7 7 6 5 6 6 4 2 1 1 1 1 1 1 0 0 1 2 3 2 1 1 0 1 1 1 0 0 0 0 0 0 0 0 0 0 0
0 0 0 0 2 3 4 5 6 5 4 3 2 1 2 2 2 1 1 1 1 0 0 1 2 1 1 0 0 0 0 0 0 0 0 0 0 0 0 0 0 0 0 0
0 0 0 0 0 1 2 3 3 3 2 1 1 1 1 1 1 1 0 1 1 0 0 1 1 0 0 0 0 0 0 0 0 0 0 0 0 0 0 0 0 0 0 0
0 0 0 0 0 0 1 2 2 2 1 1 1 1 1 0 0 0 0 0 0 0 0 0 0 0 0 0 0 0 0 0 0 0 0 0 0 0 0 0 0 0 0 0
0 0 0 0 0 0 1 1 1 1 0 0 0 0 0 0 0 0 0 0 0 0 0 0 0 0 0 0 0 0 0 0 0 0 0 0 0 0 0 0 0 0 0 0
0 0 0 0 0 0 0 0 0 0 0 0 0 0 0 0 0 0 0 0 0 0 0 0 0 0 0 0 0 0 0 0 0 0 0 0 0 0 0 0 0 0 0 0
0 0 0 0 0 0 0 0 0 0 0 0 0 0 0 0 0 0 0 0 0 0 0 0 0 0 0 0 0 0 0 0 0 0 0 0 0 0 0 0 0 0 0 0
0 0 0 0 0 0 0 0 0 0 0 0 0 0 0 0 0 0 0 0 0 0 0 0 0 0 0 0 0 0 0 0 0 0 0 0 0 0 0 0 0 0 0 0
0 0 0 0 0 0 0 0 0 0 0 0 0 0 0 0 0 0 0 0 0 0 0 0 0 0 0 0 0 0 0 0 0 0 0 0 0 0 0 0 0 0 0 0
0 0 0 0 0 0 0 0 0 0 0 0 0 0 0 0 0 0 0 0 0 0 0 0 0 0 0 0 0 0 0 0 0 0 0 0 0 0 0 0 0 0 0 0
0 0 0 0 0 0 0 0 0 0 0 0 0 0 0 0 0 0 0 0 0 0 0 0 0 0 0 0 0 0 0 0 0 0 0 0 0 0 0 0 0 0 0 0
0 0 0 0 0 0 0 0 0 0 0 0 0 0 0 0 0 0 0 0 0 0 0 0 0 0 0 0 0 0 0 0 0 0 0 0 0 0 0 0 0 0 0 0
0 0 0 0 0 0 0 0 0 0 0 0 0 0 0 0 0 0 0 0 0 0 0 0 0 0 0 0 0 0 0 0 0 0 0 0 0 0 0 0 0 0 0 0
0 0 0 0 0 0 0 0 0 0 0 0 0 0 0 0 0 0 0 0 0 0 0 0 0 0 0 0 0 0 0 0 0 0 0 0 0 0 0 0 0 0 0 0
0 0 0 0 0 0 0 0 0 0 0 0 0 0 0 0 0 0 0 0 0 0 0 0 0 0 0 0 0 0 0 0 0 0 0 0 0 0 0 0 0 0 0 0
0 0 0 0 0 0 0 0 0 0 0 0 0 0 0 0 0 0 0 0 0 0 0 0 0 0 0 0 0 0 0 0 0 0 0 0 0 0 0 0 0 0 0 0
0 0 0 0 0 0 0 0 0 0 0 0 0 0 0 0 0 0 0 0 0 0 0 0 0 0 0 0 0 0 0 0 0 0 0 0 0 0 0 0 0 0 0 0
0 0 0 0 0 0 0 0 0 0 0 0 0 0 0 0 0 0 0 0 0 0 0 0 0 0 0 0 0 0 0 0 0 0 0 0 0 0 0 0 0 0 0 0
Wind_Speed
5 6 5 6 7 7 6 8 7 7 7 8 8 6 5 6 7 8 9 9 10 10 9 9 9 9 10 11 10 11 10 10 10 8 7 7 7 7 7 8 9 8 7 7
3 3 3 3 6 7 7 6 6 5 6 5 4 3 2 4 6 7 9 10 9 9 9 9 9 10 10 10 10 10 11 11 10 9 9 8 8 7 7 7 7 7 7 7
2 4 3 3 5 6 4 3 6 7 6 3 4 5 5 5 6 7 7 8 8 8 8 9 9 9 10 11 10 10 11 10 10 10 9 8 8 7 8 8 7 7 7 7
1 1 5 7 3 3 4 2 2 3 3 5 7 6 4 4 6 6 5 6 6 5 4 4 5 6 7 7 8 9 9 8 8 8 8 7 6 7 7 6 6 6 6 7
3 3 4 5 2 1 2 0 1 4 5 5 8 9 6 3 4 6 6 5 4 4 4 4 3 4 5 6 7 7 7 7 7 7 6 6 6 6 6 5 5 6 5 6
3 3 4 5 5 4 2 1 1 4 7 6 5 5 2 2 5 7 7 6 5 5 6 5 3 4 6 5 5 4 4 4 5 5 6 6 7 6 4 4 5 5 5 5
3 3 4 3 6 2 3 5 1 4 7 7 4 4 5 6 7 8 8 8 7 8 7 5 5 8 8 7 5 4 4 4 4 4 4 5 4 3 4 4 3 3 3 3
2 2 4 5 3 1 3 1 3 6 7 11 11 10 9 9 9 10 9 8 8 9 8 7 7 8 9 6 4 4 5 4 4 3 2 2 3 2 3 4 3 3 2 1
3 3 2 2 1 1 1 4 4 6 8 12 12 11 10 9 9 9 9 8 8 9 10 8 7 7 8 4 4 5 5 4 4 4 2 2 3 3 3 2 3 2 2 2
1 1 2 2 4 4 5 5 6 7 9 12 13 11 10 10 9 9 9 8 8 9 10 8 7 7 6 5 5 6 5 4 3 3 3 3 3 2 3 2 2 2 2 2
1 1 3 5 4 4 7 8 10 10 10 11 14 13 11 10 9 8 8 7 7 8 8 7 6 7 6 5 6 6 4 3 2 2 2 2 2 2 2 2 3 4 3 3
2 1 2 1 2 6 9 10 11 13 13 11 11 13 12 10 8 8 8 7 8 8 7 6 6 6 5 5 5 5 4 3 2 1 1 1 1 1 1 1 2 4 4 4
3 3 4 5 7 9 12 11 12 13 13 12 10 11 11 9 8 8 8 7 7 6 6 6 6 5 4 4 5 5 3 2 1 1 1 0 0 0 1 2 2 2 3 4
5 6 7 7 8 10 13 12 13 13 12 11 10 10 10 9 9 9 7 6 6 6 6 5 5 4 3 4 5 4 3 3 2 1 1 0 0 1 1 1 1 2 3 5
7 8 8 9 10 9 10 12 13 12 11 10 9 9 10 10 8 7 5 5 6 6 5 4 4 3 3 3 4 4 3 2 2 1 1 1 1 0 1 1 1 2 2 2
9 10 11 12 11 10 11 12 12 10 9 9 8 8 8 8 6 5 5 5 6 4 3 3 3 2 2 3 3 3 2 4 3 2 2 2 1 1 1 1 1 2 2 2
10 9 10 10 10 10 9 9 8 7 7 8 7 7 7 7 6 5 4 4 4 3 2 2 1 2 2 3 2 2 2 3 5 3 2 2 2 2 2 1 2 2 3 3
9 8 8 10 10 9 8 8 8 8 6 6 7 7 6 5 4 2 2 3 4 3 3 2 2 2 3 3 2 2 2 2 2 2 2 2 2 2 2 2 2 2 2 2
10 10 9 9 8 8 7 6 6 5 5 5 6 5 4 3 3 2 3 4 3 2 3 3 4 4 4 5 4 2 2 3 3 3 2 3 3 2 2 2 2 2 2 1
11 10 10 10 9 8 7 6 6 5 4 4 5 5 4 3 3 3 4 3 0 1 2 2 3 3 4 4 5 3 3 3 3 3 3 2 2 2 3 3 2 2 2 2
10 10 10 9 7 6 6 5 5 5 4 5 5 4 3 2 3 3 3 2 3 3 2 3 2 2 3 4 5 3 3 3 3 2 2 2 2 3 3 3 3 3 3 3
7 7 7 6 6 5 3 4 5 5 5 4 4 4 3 3 3 3 2 0 2 2 2 2 1 3 4 5 3 3 3 3 2 2 2 2 2 2 3 3 3 3 3 3
6 6 5 5 4 4 4 4 5 5 4 4 3 3 3 2 2 2 1 2 1 3 2 2 3 5 6 3 3 3 3 3 3 2 2 2 2 2 3 3 3 3 3 3
5 5 4 4 5 6 5 4 4 4 4 3 3 3 3 3 2 2 0 1 3 3 2 3 5 6 5 3 3 3 3 3 3 3 3 3 3 3 3 3 3 4 4 4
3 4 5 5 5 4 3 4 5 5 5 4 5 4 3 2 2 1 2 2 4 4 3 5 7 6 4 3 3 3 3 3 3 3 3 3 4 4 4 4 4 4 4 4
3 3 4 4 3 3 3 4 4 3 3 3 3 3 3 3 3 3 3 4 4 4 4 3 4 4 3 3 3 3 3 4 4 4 4 4 4 4 4 4 6 4 4 4
5 5 4 5 4 4 4 4 3 3 3 3 2 3 3 3 3 4 4 3 3 3 3 3 3 3 3 3 3 4 4 3 3 4 4 4 4 4 5 6 5 5 5 5
Wind_Direction
228 229 217 214 206 185 177 183 186 211 202 215 202 208 210 183 164 162 168 171 174 176 177 180 184 188 189 189 187 184 181 187 193 191 192 192 189 187 186 187 191 192 193 197
318 297 249 231 219 201 194 186 192 190 230 229 187 167 165 157 153 164 173 175 175 174 171 176 182 187 188 189 186 180 184 192 191 186 192 195 194 190 189 192 193 190 193 195
279 304 341 267 229 197 180 189 171 195 221 180 151 154 172 160 151 159 169 166 166 173 178 184 189 189 190 191 185 182 190 193 190 189 192 196 196 189 191 194 193 194 196 195
172 50 231 244 270 149 143 164 160 167 169 152 144 137 116 122 138 140 146 139 140 147 157 174 179 184 189 180 177 183 188 192 192 190 193 193 193 197 202 196 194 197 200 199
151 194 257 282 311 15 141 281 98 137 124 122 112 88 59 62 113 124 120 114 119 128 141 145 149 162 153 158 165 171 179 184 184 181 184 185 196 204 204 198 198 200 196 193
158 168 227 256 298 310 85 289 294 144 145 141 107 107 133 95 99 97 90 89 91 88 83 87 92 110 113 121 126 138 154 157 155 162 175 187 199 201 201 203 206 201 196 192
175 201 245 287 304 342 159 218 215 137 133 120 114 136 129 94 86 87 85 83 83 82 79 75 82 93 94 91 96 112 111 110 116 141 174 184 183 181 179 184 184 188 191 195
164 194 252 330 355 108 219 210 112 103 109 107 106 103 93 87 85 85 82 79 81 83 77 65 72 90 89 87 90 89 87 87 89 90 112 139 139 164 169 163 158 168 165 170
183 206 266 315 279 269 150 116 107 104 111 112 112 107 98 91 85 82 83 82 81 83 78 66 65 84 91 82 80 82 81 75 75 78 79 100 122 123 107 115 131 142 142 164
93 303 318 352 38 41 64 91 99 102 109 111 113 108 101 95 89 85 84 84 82 83 80 68 60 64 69 67 76 83 78 67 65 81 83 81 96 112 124 139 145 159 165 180
142 277 12 24 38 68 80 83 83 83 94 107 111 105 101 96 90 89 85 80 82 84 82 74 66 63 60 64 72 76 74 69 64 63 81 84 95 135 159 193 183 177 190 188
207 235 119 45 66 94 96 100 102 97 91 92 101 104 100 96 94 91 86 84 81 78 77 72 68 62 54 64 75 76 63 51 54 56 62 80 88 30 343 262 225 207 200 190
138 103 104 100 84 88 95 98 99 98 100 98 92 96 97 95 90 87 83 83 85 83 78 70 63 51 36 49 69 74 70 50 39 40 52 71 98 134 337 341 332 266 236 229
109 105 91 87 92 93 97 97 93 91 91 93 95 94 93 89 84 83 84 88 91 86 79 74 67 47 29 51 60 55 46 36 33 9 344 278 236 217 196 211 276 298 273 242
77 93 103 99 92 92 99 100 94 91 91 89 90 92 93 92 88 86 84 84 81 75 66 60 54 22 4 41 50 40 27 3 356 343 332 316 311 287 241 233 232 253 275 280
97 92 93 95 94 93 95 98 99 99 99 97 93 94 96 98 95 85 80 85 84 77 63 54 33 353 14 42 39 24 5 354 360 345 335 330 325 314 298 284 260 247 250 257
104 100 102 101 96 92 92 96 100 100 96 95 95 93 90 88 83 76 68 74 88 91 83 66 3 355 26 31 29 357 343 341 352 355 335 314 302 288 275 266 257 256 258 254
100 108 110 110 109 103 96 92 92 93 98 103 100 93 90 93 95 89 77 70 64 43 11 350 359 21 21 15 12 350 339 332 333 324 316 316 305 293 291 283 275 269 275 286
92 94 95 97 99 99 98 98 99 99 100 102 99 96 94 91 89 85 76 67 59 23 328 342 25 39 17 358 2 352 344 338 335 329 326 332 336 333 325 315 306 299 292 295
85 84 84 82 81 84 85 86 89 84 85 95 94 87 76 64 71 74 73 64 19 260 284 23 46 32 6 351 359 354 350 347 347 344 349 352 347 340 335 330 326 323 313 301
87 84 81 80 79 77 80 82 83 82 79 86 92 92 81 56 61 72 74 41 326 339 20 46 38 360 352 350 354 354 352 349 350 349 350 350 349 344 341 337 331 325 319 315
80 81 83 83 83 77 71 77 87 89 79 72 73 76 67 47 43 50 57 98 294 0 30 19 360 359 359 1 0 353 349 352 356 358 357 353 352 345 341 337 328 321 318 316
80 79 76 73 75 72 68 72 79 82 77 71 68 72 77 70 71 81 16 325 341 23 35 8 2 9 12 14 4 2 4 5 3 359 354 349 345 336 330 328 322 321 323 324
75 69 64 62 67 69 62 56 67 72 73 68 61 61 72 64 32 21 58 25 38 39 32 13 15 16 17 13 10 12 12 8 1 357 356 353 347 342 339 336 333 332 331 332
73 65 61 61 62 59 60 64 57 51 54 51 43 43 50 68 70 21 20 27 36 40 33 22 20 22 24 12 13 15 17 18 13 6 2 357 353 352 351 348 345 341 341 340
78 70 68 73 78 71 66 66 60 46 51 49 32 29 32 38 48 43 36 34 36 37 30 17 13 16 15 16 23 21 19 14 12 8 2 358 355 353 346 343 343 342 338 335
67 67 65 57 49 54 62 65 65 55 51 54 37 19 28 36 43 43 39 32 29 26 20 16 17 20 22 24 26 19 12 8 5 2 359 356 353 348 343 342 340 339 338 335